Location: *
(58.4167°N, 22.5000°E)
Time: 17:36:06
(UTC+00:00)

Cosmos 2082 Rocket - Pass Details

Date: 22 September 2019
Orbit: 831 x 855 km, 71.0° (Epoch: 19 October)

Event Time Altitude Azimuth Distance (km) Brightness Sun altitude
Rises 23:12:34 0° 322° (NW) 3,439 5.8 -30.6°
Reaches altitude 10° 23:15:08 10° 315° (NW) 2,500 5.0 -30.5°
Enters shadow 23:18:03 28° 296° (WNW) 1,575 3.6 -30.4°
